• MPC Preparation (Info)

  • MPEC 2013-O15 : 2013 OF

    The following Minor Planet Electronic Circular may be linked-to from your own Web pages, but must not otherwise be redistributed electronically.

    A form allowing access to any MPEC is at the bottom of this page.


    Read MPEC 2013-O14 Read MPEC 2013-O16


    M.P.E.C. 2013-O15                                Issued 2013 July 17, 23:52 UT
    
         The Minor Planet Electronic Circulars contain information on unusual
             minor planets and routine data on comets.  They are published
       on behalf of Commission 20 of the International Astronomical Union by the
              Minor Planet Center, Smithsonian Astrophysical Observatory,
                              Cambridge, MA 02138, U.S.A.
    
                 Prepared using the Tamkin Foundation Computer Network
    
                                  MPC@CFA.HARVARD.EDU
                URL https://www.minorplanetcenter.net/    ISSN 1523-6714
    
                                        2013 OF
    
    Observations:
         K13O00F* C2013 07 16.33696 17 52 04.595-10 30 48.06         19.8 iLEO015F51
         K13O00F  C2013 07 16.35061 17 52 02.736-10 29 30.13         19.8 iLEO015F51
         K13O00F  C2013 07 16.37140 17 51 59.881-10 27 32.13         20.2 rLEO015F51
         K13O00F KC2013 07 16.92588017 50 57.74 -09 32 32.9          20.5 VqEO015K93
         K13O00F KC2013 07 16.93006617 50 57.17 -09 32 07.8          20.9 VqEO015K93
         K13O00F KC2013 07 16.93372517 50 56.66 -09 31 45.7          20.2 VqEO015K93
         K13O00F KC2013 07 16.95714 17 50 55.13 -09 30 55.7                qEO015J95
         K13O00F IC2013 07 16.97028 17 50 53.50 -09 29 35.3                qEO015J95
         K13O00F KC2013 07 17.18603817 50 29.65 -09 07 42.5          20.3 VqEO015H21
         K13O00F KC2013 07 17.18948817 50 29.18 -09 07 21.4          20.0 VqEO015H21
         K13O00F KC2013 07 17.19294217 50 28.71 -09 07 00.3          20.0 VqEO015H21
         K13O00F KC2013 07 17.19639417 50 28.24 -09 06 38.6          19.4 VqEO015H21
         K13O00F KC2013 07 17.83535417 49 16.51 -07 58 14.8          20.6 VqEO015K91
         K13O00F KC2013 07 17.83855717 49 16.05 -07 57 54.1          20.7 VqEO015K91
         K13O00F KC2013 07 17.84196717 49 15.55 -07 57 31.8          20.8 VqEO015K91
    
    Observer details:
    F51 Pan-STARRS 1, Haleakala.  Observers N. Primak, A. Schultz, T. Goggia,
        K. Chambers.  Measurer PS1 Science Consortium.  1.8-m Ritchey-Chretien
        + CCD.
    H21 Astronomical Research Observatory, Westfield.  Observer R. Holmes.
        Measurers T. Vorobjov, L. Buzzi, S. Foglia.  0.81-m f/4.0 astrograph + CCD.
    J95 Great Shefford.  Observer P. Birtwhistle.  0.40-m f/6.0 Schmidt-Cassegrain
        + CCD.
    K91 Sutherland-LCOGT A.  Observer T. Lister.  1.0-m f/8 Ritchey-Chretien + CCD.
    K93 Sutherland-LCOGT C.  Observer T. Lister.  1.0-m f/8 Ritchey-Chretien + CCD.
    
    Orbital elements:
    2013 OF                                                  Earth MOID = 0.0620 AU
    Epoch 2013 Apr. 18.0 TT = JDT 2456400.5                 MPC
    M 321.38651              (2000.0)            P               Q
    n   0.28158256     Peri.   69.15197     +0.97342881     +0.19160571
    a   2.3053253      Node   279.63512     -0.22685473     +0.88151939
    e   0.5947879      Incl.    7.30712     +0.03119735     +0.43152151
    P   3.50           H   23.3           G   0.15           U   7
    Residuals in seconds of arc
    130716 F51  0.2+  0.3-    130716 K93  0.4-  0.0     130717 H21  0.2+  0.9-
    130716 F51  0.2+  0.2+    130716 J95  0.7-  0.6-    130717 H21  0.2+  0.3-
    130716 F51  0.2-  0.2-    130716 J95  0.4+  0.9+    130717 K91  0.3+  0.0
    130716 K93  0.1-  0.1-    130717 H21  0.2+  0.8-    130717 K91  0.2+  0.0
    130716 K93  0.1-  0.1-    130717 H21  0.2+  0.9-    130717 K91  0.0   0.2+
    
    Ephemeris:
    2013 OF                  a,e,i = 2.31, 0.59, 7                   q = 0.9341
    Date    TT    R. A. (2000) Decl.     Delta      r     Elong.  Phase     V
    2013 06 17    18 22 49.3 -29 04 10   0.3484  1.3597   169.2     8.1    22.2
    ...
    2013 07 02    18 11 59.7 -24 01 41   0.2229  1.2381   172.6     6.1    21.0
    ...
    2013 07 10    18 02 11.3 -18 17 47   0.1668  1.1765   162.1    15.4    20.6
    ...
    2013 07 16    17 52 40.3 -11 01 44   0.1298  1.1326   152.0    24.9    20.3
    2013 07 17    17 50 51.0 -09 25 41   0.1241  1.1256   150.1    26.8    20.2
    2013 07 18    17 48 56.6 -07 40 57   0.1185  1.1186   148.0    28.8    20.2
    ...
    2013 07 24    17 34 53.7 +06 49 31   0.08920 1.0784   132.8    43.8    19.9
    ...
    2013 08 01    16 58 24.7 +40 59 34   0.06836 1.0303   101.1    75.2    20.2
    ...
    2013 08 16    08 45 23.2 +73 45 43   0.1105  0.9630    60.5   113.8    22.8
    
    A. U. Tomatic                (C) Copyright 2013 MPC           M.P.E.C. 2013-O15
    

    Read MPEC 2013-O14 Read MPEC 2013-O16


    MPEC number:

    Enter an MPEC number in one of the following forms:

    • 1997-B01 (the full form)
    • J97B01 (the packed version of the full form)
    • B01 (the abbreviated form)